#timestamp,LO_Frequency,Hit,StdDev 
1639360815.3,286046998.3,N
1639360835.2,286046999.0,N
1639360855.0,286046998.6,N
1639360855.9,286046998.6,N
1639360875.8,286046998.7,N
1639360895.6,286046998.5,N
1639360915.4,286046999.3,N
1639360935.3,286046998.1,N
1639360955.1,286046998.5,N
1639360975.9,286047001.1,N
1639360995.7,286047000.0,N
1639361015.5,286047001.2,N
1639361035.4,286047000.9,N
1639361055.2,286047000.7,N
1639361075.0,286047000.9,N
1639361075.9,286047000.9,N
1639361095.8,286047001.2,N
1639361115.6,286046998.7,N
1639361135.5,286047001.2,N
1639361155.3,286047000.4,N
1639361175.1,286047000.6,N
1639361195.9,286047000.0,N
1639361215.7,286047000.1,N
1639361235.5,286046999.9,N
1639361255.4,286047002.4,N
1639361275.2,286047002.4,N
1639361295.1,286047000.1,N
1639361296.0,286047000.1,N
1639361315.8,286047002.5,N
1639361335.6,286047001.5,N
1639361355.5,286047003.2,N
1639361375.3,286047001.4,N
1639361395.1,286047001.6,N
1639361415.9,286047002.7,N
1639361435.7,286047001.7,N
1639361455.6,286047001.7,N
1639361475.4,286047001.4,N
1639361495.2,286047004.4,Y
1639361515.1,286047002.0,P
1639361516.0,286047002.0,P
1639361535.8,286047002.7,P
1639361555.7,286047002.8,Y
1639361575.5,286046999.9,P
1639361595.3,286046999.8,N
1639361615.2,286047002.4,N
1639361635.0,286046998.4,N
1639361635.9,286046998.4,N
1639361655.7,286046998.3,N
1639361675.6,286046996.7,N
1639361695.4,286046995.1,N
1639361715.3,286046997.9,N
1639361735.1,286046994.9,N
1639361736.0,286046994.9,N
1639361755.8,286046997.4,N
1639361775.7,286046997.6,N
1639361795.5,286046996.7,N
1639361815.4,286046996.9,N
1639361835.2,286046997.6,N
1639361855.0,286046995.3,N
1639361855.9,286046995.3,N
1639361875.8,286046995.3,N
1639361895.6,286046996.7,N
1639361915.4,286046997.6,N
1639361935.3,286046997.2,N
1639361955.1,286046997.0,N
1639361975.9,286046996.8,N
1639361995.7,286046997.5,N
1639362015.5,286046996.9,N
1639362035.4,286046997.7,N
1639362055.2,286046998.3,N
1639362075.0,286046998.5,N
1639362075.9,286046998.5,N
1639362095.8,286046998.5,N
1639362115.6,286046998.1,N
1639362135.5,286047000.4,N
1639362155.3,286047000.7,N
1639362175.1,286046998.6,N
1639362195.9,286046999.1,N
1639362215.7,286046998.3,N
1639362235.5,286046999.0,N
1639362255.4,286046998.8,N
1639362275.2,286047001.1,N
1639362295.1,286046998.5,N
1639362296.0,286046998.5,N
1639362315.8,286047000.9,N
1639362335.6,286047001.1,N
1639362355.5,286046998.1,N
1639362375.3,286047000.7,N
1639362395.1,286047002.8,N
1639362415.9,286046998.1,N
1639362435.7,286047000.6,N
1639362455.6,286046999.1,N
1639362475.4,286046996.5,N
1639362495.2,286046996.6,N
1639362515.1,286046997.0,N
1639362516.0,286046997.0,N
1639362535.8,286046999.1,N
1639362555.6,286046997.2,N
1639362575.5,286046998.8,N
1639362595.3,286046999.1,N
1639362615.2,286046998.8,N
1639362635.9,286046998.9,N
1639362655.7,286046998.2,N
1639362675.6,286047000.6,N
1639362695.4,286046999.8,N
1639362715.3,286047000.8,N
1639362735.1,286047000.7,N
1639362736.0,286047000.7,N
1639362755.8,286047000.7,N
1639362775.7,286046999.8,N
1639362795.5,286046998.6,N
1639362815.3,286046996.7,N
1639362835.2,286046999.3,N
1639362855.0,286046999.4,N
1639362855.9,286046999.4,N
1639362875.8,286046997.0,N
1639362895.6,286046999.1,N
1639362915.4,286046998.8,N
1639362935.3,286046998.1,N
1639362955.1,286046998.8,N
1639362975.9,286046998.1,N
1639362995.7,286047000.7,N
1639363015.5,286046997.1,N
1639363035.4,286046999.5,N
1639363055.2,286046996.9,N
1639363075.0,286046999.1,N
1639363075.9,286046999.1,N
1639363095.8,286046996.5,N
1639363115.6,286046999.1,N
1639363135.5,286046999.2,N
1639363155.3,286046998.8,N
1639363175.1,286046999.0,N
1639363195.9,286047001.1,N
1639363215.7,286047000.5,N
1639363235.5,286047000.6,N
1639363255.4,286047000.2,N
1639363275.2,286047000.4,N
1639363295.1,286047000.9,N
1639363296.0,286047000.9,N
1639363315.8,286047000.5,N
1639363335.6,286047000.7,N
1639363355.5,286047000.6,N
1639363375.3,286046998.9,N
1639363395.2,286046998.5,N
1639363415.9,286047000.2,N
1639363435.7,286047000.3,N
1639363455.6,286046998.8,N
1639363475.4,286046998.1,N
1639363495.3,286046999.0,N
1639363515.1,286046998.7,N
1639363516.0,286046998.7,N
1639363535.8,286046996.5,N
1639363555.7,286046997.5,N
1639363575.5,286046997.1,N
1639363595.4,286046996.5,N
1639363615.2,286046998.7,N
1639363635.0,286046998.1,N
1639363635.9,286046998.1,N
1639363655.8,286046998.8,N
1639363675.6,286046998.7,N
1639363695.5,286046996.7,N
1639363715.3,286046998.9,N
1639363735.1,286046997.2,N
1639363755.9,286046996.9,N
1639363775.7,286046996.9,N
1639363795.5,286047000.9,N
1639363815.4,286046997.2,N
1639363835.2,286046997.7,N
1639363855.1,286046995.2,Y
1639363856.0,286046995.2,P
1639363875.8,286046999.0,N
1639363895.7,286046999.1,N
1639363915.5,286046998.9,N
1639363935.3,286046998.2,N
1639363955.2,286046999.0,N
1639363975.9,286047000.7,N
1639363995.7,286047000.5,N
1639364015.6,286047000.7,N
1639364035.4,286046999.9,N
1639364055.3,286046999.8,N
1639364075.1,286047000.5,N
1639364076.0,286047000.5,N
1639364095.8,286046998.1,N
1639364115.7,286046998.3,N
1639364135.5,286046998.4,N
1639364155.3,286046999.3,N
1639364175.2,286046999.4,N
1639364195.0,286046998.4,N
1639364195.9,286046998.4,N
1639364215.8,286046998.8,N
1639364235.6,286046999.1,N
1639364255.4,286046999.4,N
1639364275.3,286046999.0,N
1639364295.1,286046999.4,N
1639364315.9,286046998.7,N
1639364335.7,286047001.2,N
1639364355.5,286047000.4,N
1639364375.4,286046999.4,N
1639364395.2,286046999.5,N
